Regional Weather Roundup
Issued by NWS State College, PA

Home | Current Version | Previous Version | Text Only | Print | Product List | Glossary On
Versions: 1 2 3 4 5 6 7 8 9 10 11 12 13 14 15 16 17 18 19 20 21 22 23 24 25 26 27 28 29 30 31 32 33 34 35 36 37 38 39 40 41 42 43 44 45 46 47 48 49 50
281
ASUS41 KCTP 211003
RWRCTP

REGIONAL WEATHER ROUNDUP
NATIONAL WEATHER SERVICE STATE COLLEGE PA
500 AM EST TUE NOV 21 2017

Note: "fair" indicates few or no clouds below 12,000 feet with no
significant weather and/or obstructions to visibility.

* = STATION THAT DOES NOT REPORT PRECIPITATION /E.G. RAIN...SNOW...ETC/
    THUNDER OR FOG.

PAZ002>004-007>009-013>016-020>023-029>032-211100-
WESTERN PENNSYLVANIA

CITY           SKY/WX    TMP DP  RH WIND       PRES   REMARKS
ERIE           CLEAR     43  20  39 S21G32    29.84F
MEADVILLE      CLEAR     35  22  58 S9        29.89F
FRANKLIN*      CLEAR     33  21  61 S9        29.92S
NEW CASTLE     FAIR      37  22  54 VRB5      29.94S
BEAVER COUNTY  NOT AVBL
BUTLER*        CLEAR     34  21  59 S7        29.96S
PITTSBURGH INT CLEAR     32  22  66 S6        29.95F
PITTSBURGH     CLEAR     37  18  46 S12       29.96S
INDIANA*       CLEAR     27  25  93 SW5       30.01S
LATROBE        CLEAR     32  19  59 S7        29.99S
WASHINGTON CO* CLEAR     40  18  41 SW7       30.00S
$$

PAZ004>006-010>012-017>019-024>028-033>037-041-042-045-046-049>053-211100-
CENTRAL PENNSYLVANIA

CITY           SKY/WX    TMP DP  RH WIND       PRES   REMARKS
BRADFORD       CLEAR     35  20  54 SW8       29.90F
DUBOIS         CLEAR     38  17  42 SW9       29.93F
CLEARFIELD     CLEAR     24  23  96 N3        29.98F
JOHNSTOWN      CLEAR     39  14  36 SW12      29.97S
ALTOONA        CLEAR     33  21  61 CALM      30.01S
STATE COLLEGE  CLEAR     29  22  76 CALM      30.01S
WILLIAMSPORT   CLEAR     26  23  88 W3        30.06R
SELINSGROVE    CLEAR     26  24  92 CALM      30.06F
FT INDIANTOWN  CLEAR     24  24  99 CALM      30.08F
CAPITAL CITY   CLEAR     28  22  78 CALM      30.08F
HARRISBURG     PTCLDY    29  24  82 E3        30.08F
YORK           CLEAR     34  25  69 CALM      30.07S
$$

PAZ038>040-043-044-047-048-054-055-060>062-067>071-211100-
EASTERN PENNSYLVANIA

CITY           SKY/WX    TMP DP  RH WIND       PRES   REMARKS
SCRANTON       CLEAR     32  23  69 S3        30.05R
MOUNT POCONO   CLOUDY    34  21  59 SW7       30.03R
ALLENTOWN      CLOUDY    27  23  85 CALM      30.10S
QUAKERTOWN*    CLOUDY    32  25  74 S3        30.11R
READING        CLEAR     29  27  92 CALM      30.10R
LANCASTER      CLEAR     31  25  78 SE7       30.10R
COATESVILLE    SUNNY     39  28  65 S3        30.11R
POTTSTOWN      PTCLDY    30  25  81 SE3       30.13R
BLUE BELL      CLEAR     34  32  93 CALM      30.14R
DOYLESTOWN     CLEAR     33  27  78 S3        30.11R
WILLOW GROVE   NOT AVBL
NORTH PHILA    CLEAR     40  29  64 VRB3      30.14S
PHILADELPHIA   PTCLDY    41  31  67 SW7       30.14S
$$




USA.gov is the U.S. government's official web portal to all federal, state and local government web resources and services.